Temp
78 77 76 75 75 75 75 75 74 75 75 75 75 74 74 70 66 65 69 69 76 77 75 76 76 76 76 76 76 75 75 76 75
77 76 76 75 75 75 75 75 74 74 74 75 75 74 72 65 64 64 66 69 77 76 76 75 75 75 75 76 75 75 75 76 76
76 75 75 75 75 75 75 74 74 74 74 74 74 72 70 67 64 64 64 73 76 76 74 74 74 74 74 73 74 74 74 75 75
75 75 75 75 75 75 74 74 74 74 74 73 73 71 69 63 63 66 64 73 76 76 75 74 73 73 73 72 73 73 73 73 74
74 73 73 75 74 74 74 74 74 73 73 72 72 69 68 61 62 63 63 74 76 75 74 73 72 72 72 72 72 72 72 72 72
69 69 71 73 73 73 73 73 73 71 70 70 70 66 60 59 60 61 68 74 76 74 74 72 72 71 71 71 71 71 71 71 71
67 66 69 72 72 72 73 73 72 67 60 60 64 59 58 59 61 62 70 74 76 74 73 72 71 71 70 70 70 70 70 70 70
64 63 65 65 67 65 67 65 62 59 59 59 58 59 59 57 61 65 71 74 75 74 72 71 71 70 70 70 69 69 69 69 69
61 61 62 63 64 63 62 60 60 59 59 58 58 58 58 57 61 63 69 73 74 74 72 72 71 70 70 69 69 68 68 68 68
61 61 62 62 63 62 61 60 60 58 59 59 60 61 58 58 60 61 65 70 73 73 73 72 71 70 70 70 69 68 68 68 68
61 61 61 61 62 63 62 61 60 59 58 59 61 61 60 59 59 61 62 67 70 72 73 72 72 71 70 70 69 68 68 67 67
64 63 61 62 62 62 62 61 60 59 59 57 59 60 59 58 59 60 60 62 66 69 72 72 72 71 71 70 69 68 68 67 67
64 64 63 63 61 61 61 61 60 58 57 57 58 58 58 57 56 58 58 59 61 65 69 71 72 71 71 71 70 69 68 67 66
66 65 65 63 62 62 62 60 59 57 56 56 57 56 56 57 59 56 57 57 58 58 63 66 68 69 71 71 70 69 68 67 66
65 66 65 63 63 62 60 61 57 57 57 60 59 57 55 55 54 55 58 56 57 56 57 58 61 66 69 71 71 70 69 67 66
64 65 63 62 63 64 63 61 60 58 54 54 54 54 57 54 54 53 55 55 56 55 57 56 55 58 66 69 70 71 70 68 67
64 63 62 62 63 61 61 60 58 57 53 53 50 53 54 52 55 52 55 55 55 56 57 55 55 55 55 58 67 69 70 69 68
64 64 63 62 61 61 61 60 59 60 52 53 56 50 49 47 50 50 51 53 50 53 54 55 56 55 56 58 62 64 67 69 69
63 63 63 62 61 60 61 62 61 58 57 50 53 53 53 51 51 50 49 48 50 49 50 53 54 55 56 57 58 61 63 67 68
60 61 62 61 61 61 60 59 58 59 60 55 50 52 50 49 48 51 51 47 48 49 51 54 55 56 57 55 56 60 63 65 66
MSLP
1018.58 1018.93 1019.24 1019.44 1019.56 1019.71 1019.80 1019.88 1019.96 1020.07 1020.06 1020.06 1020.13 1020.05 1020.02 1020.13 1020.25 1020.28 1020.10 1020.03 1019.86 1019.81 1019.95 1019.87 1019.76 1019.84 1019.71 1019.64 1019.60 1019.63 1019.35 1018.99 1019.27
1019.04 1019.22 1019.51 1019.67 1019.74 1019.85 1019.93 1020.04 1020.11 1020.21 1020.27 1020.29 1020.35 1020.35 1020.42 1020.57 1020.63 1020.55 1020.45 1020.28 1020.08 1020.17 1020.31 1020.41 1020.26 1020.28 1020.26 1020.18 1020.10 1020.08 1019.91 1019.64 1019.58
1019.42 1019.63 1019.78 1019.90 1020.01 1020.09 1020.19 1020.33 1020.42 1020.47 1020.49 1020.54 1020.53 1020.52 1020.68 1020.85 1020.91 1020.86 1020.78 1020.53 1020.51 1020.55 1020.79 1020.74 1020.67 1020.57 1020.58 1020.55 1020.41 1020.42 1020.40 1020.27 1020.09
1019.68 1019.82 1019.96 1020.06 1020.21 1020.31 1020.46 1020.58 1020.67 1020.69 1020.72 1020.77 1020.80 1020.84 1020.92 1021.05 1021.17 1021.13 1021.09 1020.85 1020.80 1020.92 1021.12 1021.14 1021.13 1021.05 1021.04 1020.91 1020.83 1020.76 1020.77 1020.71 1020.46
1019.88 1020.03 1020.10 1020.21 1020.34 1020.47 1020.63 1020.75 1020.88 1020.95 1020.99 1021.06 1021.19 1021.20 1021.27 1021.38 1021.38 1021.33 1021.24 1021.00 1020.89 1021.06 1021.29 1021.54 1021.46 1021.50 1021.44 1021.33 1021.21 1021.10 1021.12 1021.09 1021.04
1019.85 1020.07 1020.13 1020.27 1020.39 1020.56 1020.72 1020.89 1021.05 1021.14 1021.18 1021.23 1021.35 1021.52 1021.65 1021.66 1021.66 1021.53 1021.23 1021.04 1020.95 1021.21 1021.45 1021.72 1021.77 1021.80 1021.81 1021.72 1021.63 1021.55 1021.47 1021.50 1021.49
1020.12 1020.18 1020.22 1020.28 1020.35 1020.46 1020.64 1020.87 1021.03 1021.22 1021.52 1021.66 1021.63 1021.81 1021.82 1021.72 1021.69 1021.63 1021.38 1021.08 1021.07 1021.34 1021.60 1021.80 1021.88 1022.02 1021.96 1021.93 1021.86 1021.95 1021.82 1021.86 1021.84
1020.20 1020.35 1020.46 1020.52 1020.53 1020.73 1020.84 1020.99 1021.20 1021.32 1021.43 1021.49 1021.65 1021.71 1021.69 1021.75 1021.57 1021.42 1021.28 1021.10 1021.17 1021.42 1021.62 1021.90 1022.06 1022.10 1022.16 1022.17 1022.14 1022.29 1022.26 1022.33 1022.26
1020.21 1020.38 1020.48 1020.55 1020.55 1020.72 1020.89 1021.16 1021.28 1021.43 1021.51 1021.60 1021.62 1021.67 1021.72 1021.65 1021.48 1021.35 1021.19 1021.09 1021.20 1021.43 1021.73 1021.94 1022.04 1022.05 1022.15 1022.35 1022.34 1022.37 1022.52 1022.53 1022.62
1020.06 1020.22 1020.38 1020.51 1020.63 1020.73 1020.94 1021.11 1021.24 1021.39 1021.47 1021.52 1021.53 1021.48 1021.54 1021.52 1021.41 1021.40 1021.33 1021.33 1021.28 1021.42 1021.67 1021.88 1022.05 1022.17 1022.19 1022.23 1022.39 1022.51 1022.67 1022.78 1022.81
1019.91 1020.07 1020.19 1020.31 1020.36 1020.39 1020.58 1020.75 1020.98 1021.17 1021.36 1021.35 1021.26 1021.20 1021.27 1021.34 1021.30 1021.29 1021.34 1021.29 1021.30 1021.35 1021.53 1021.70 1021.88 1022.01 1022.15 1022.29 1022.36 1022.56 1022.69 1022.81 1022.91
1019.44 1019.68 1019.89 1019.91 1020.03 1020.23 1020.46 1020.54 1020.70 1020.99 1021.11 1021.31 1021.15 1021.04 1020.97 1021.08 1021.04 1021.14 1021.25 1021.33 1021.34 1021.42 1021.44 1021.60 1021.76 1021.87 1022.09 1022.30 1022.42 1022.60 1022.77 1022.89 1023.08
1019.09 1019.24 1019.32 1019.35 1019.69 1019.96 1020.26 1020.32 1020.62 1020.74 1020.95 1020.98 1020.96 1020.82 1020.87 1020.85 1020.90 1020.97 1021.09 1021.20 1021.32 1021.34 1021.34 1021.44 1021.52 1021.66 1021.77 1022.03 1022.37 1022.58 1022.74 1022.90 1023.02
1018.57 1018.66 1018.63 1018.87 1019.25 1019.54 1019.82 1020.12 1020.34 1020.42 1020.53 1020.60 1020.48 1020.60 1020.70 1020.59 1020.41 1020.60 1020.64 1020.72 1020.86 1021.04 1021.07 1021.07 1021.33 1021.44 1021.54 1021.65 1021.92 1022.27 1022.54 1022.74 1022.87
1017.96 1018.14 1018.35 1018.68 1019.00 1019.18 1019.39 1019.65 1019.78 1019.85 1019.90 1020.19 1020.15 1020.13 1020.13 1020.32 1020.25 1020.19 1020.21 1020.27 1020.37 1020.59 1020.80 1020.94 1020.97 1021.15 1021.40 1021.48 1021.63 1021.88 1022.25 1022.50 1022.67
1017.41 1017.63 1017.88 1018.16 1018.45 1018.52 1018.78 1019.10 1019.35 1019.57 1019.85 1020.33 1020.16 1019.84 1019.68 1019.84 1019.69 1019.73 1019.79 1019.80 1019.75 1019.96 1020.26 1020.58 1020.88 1020.93 1021.01 1021.19 1021.28 1021.42 1021.78 1022.30 1022.56
1017.24 1017.39 1017.49 1017.60 1017.92 1018.08 1018.24 1018.50 1019.00 1019.20 1019.43 1020.19 1020.67 1020.23 1019.72 1019.42 1019.25 1019.30 1019.34 1019.32 1019.54 1019.64 1019.87 1020.06 1020.37 1020.65 1020.84 1020.95 1020.94 1020.99 1021.17 1021.54 1022.05
1016.64 1016.79 1016.91 1017.24 1017.39 1017.56 1017.68 1017.97 1018.34 1018.61 1019.16 1019.33 1019.88 1020.23 1020.06 1019.88 1019.00 1018.98 1019.06 1019.06 1019.27 1019.19 1019.57 1019.73 1019.90 1020.13 1020.32 1020.46 1020.46 1020.65 1020.91 1021.04 1021.35
1016.40 1016.44 1016.46 1016.54 1016.80 1017.06 1017.08 1017.18 1017.42 1017.94 1018.40 1019.15 1019.08 1019.08 1019.21 1019.55 1019.15 1019.01 1018.81 1018.83 1019.00 1018.94 1019.16 1019.22 1019.29 1019.35 1019.55 1019.78 1020.06 1020.32 1020.67 1020.92 1021.13
1016.36 1016.24 1016.09 1016.19 1016.26 1016.35 1016.54 1016.70 1016.90 1017.19 1017.46 1017.95 1018.52 1018.79 1019.13 1019.44 1019.80 1018.81 1018.90 1018.79 1018.75 1018.83 1018.73 1018.59 1018.76 1018.91 1019.04 1019.25 1019.49 1019.82 1020.37 1020.39 1021.17
Wind_Speed
14 14 13 10 10 10 9 8 8 7 7 7 7 5 9 8 5 3 4 4 9 13 11 11 13 12 14 11 6 7 12 9 8
12 12 10 9 9 9 8 7 6 5 5 6 6 5 9 5 3 3 3 2 8 9 9 9 10 9 10 9 12 12 14 16 10
9 9 9 8 8 8 7 5 3 2 3 4 6 6 8 4 3 2 2 2 6 6 6 7 8 7 6 5 6 8 10 10 12
8 8 7 7 7 6 5 4 2 1 2 2 6 5 6 4 2 1 0 2 5 6 5 5 6 6 6 6 5 5 7 5 5
7 6 5 6 7 5 4 2 1 1 1 1 4 5 4 2 1 1 2 5 8 8 7 3 4 5 5 6 6 6 4 4 5
7 6 6 6 7 6 4 2 2 2 4 3 2 4 1 1 2 2 6 7 10 9 7 3 4 5 5 6 6 6 6 6 6
3 4 6 7 7 8 6 5 3 2 1 2 4 1 1 2 3 3 8 8 9 8 6 5 5 4 5 5 6 5 6 6 7
3 2 2 2 4 2 2 2 1 2 1 2 2 2 2 2 3 4 9 10 6 6 7 6 6 5 5 5 5 5 5 5 6
4 3 4 3 3 4 4 2 3 3 4 4 4 3 2 2 2 4 8 9 9 7 7 7 7 7 7 6 6 6 5 6 6
4 4 3 3 3 3 4 4 3 4 5 5 5 4 4 5 3 3 7 8 8 10 10 9 9 8 8 8 7 7 6 6 6
4 4 4 4 4 4 4 5 4 4 3 5 5 6 4 5 5 3 4 9 10 11 12 11 11 10 10 9 9 8 7 7 7
6 5 4 6 4 5 4 4 3 4 3 6 5 5 5 5 6 5 4 4 9 10 13 12 12 12 11 11 10 10 9 8 7
7 6 6 6 4 4 4 5 4 4 4 4 5 5 4 6 6 5 4 4 4 8 12 13 14 14 13 13 12 11 10 10 9
7 7 7 6 5 5 6 5 4 4 4 5 5 5 5 5 4 6 7 7 6 4 9 11 12 13 16 15 14 14 13 12 11
7 5 5 5 5 5 4 7 4 5 5 5 5 5 5 5 5 6 5 6 8 6 7 5 5 12 15 17 16 16 15 14 13
7 7 6 6 7 8 8 5 7 5 2 1 3 4 5 6 6 4 5 7 8 7 7 5 4 4 14 17 18 18 17 15 15
5 5 5 6 6 6 6 7 3 3 5 3 1 3 3 4 7 5 7 9 5 7 8 7 7 5 4 7 16 19 19 17 16
6 7 5 5 5 5 6 6 8 9 3 5 4 1 5 2 1 4 4 6 4 4 5 7 8 7 7 9 11 13 16 19 18
5 6 6 7 4 6 7 7 8 4 7 2 5 3 3 4 4 2 2 4 6 6 5 7 8 9 8 12 11 13 12 18 16
5 5 6 6 5 6 7 5 6 6 7 5 3 5 2 1 2 9 4 2 4 5 6 7 7 9 9 8 9 13 15 18 18
Wind_Direction
128 125 118 127 126 129 127 120 114 114 114 108 95 79 117 106 106 101 87 77 85 87 86 82 68 50 55 90 96 84 55 64 151
122 116 139 141 142 143 139 134 127 121 115 105 93 106 127 116 114 105 87 101 98 81 67 57 66 59 45 46 52 51 52 56 94
143 141 150 153 153 151 148 147 141 122 95 81 60 110 124 116 119 109 92 120 102 95 75 71 72 79 65 65 56 55 55 61 70
162 159 163 162 158 156 158 166 172 153 90 67 64 100 121 124 132 146 104 227 128 115 95 81 76 74 71 71 66 58 62 45 54
178 169 181 174 165 159 167 185 222 262 9 25 74 68 80 130 184 246 248 242 146 121 99 68 87 80 79 75 71 77 90 85 79
164 171 185 177 171 170 184 208 253 338 0 345 18 61 29 204 252 255 251 238 157 140 117 115 104 102 94 96 90 93 98 93 91
170 185 193 198 193 173 190 200 189 81 11 342 4 16 318 232 244 253 252 221 165 140 140 151 148 138 132 120 116 116 109 102 97
176 189 218 218 217 192 210 207 177 215 219 246 238 219 251 225 237 245 231 209 167 159 163 174 168 162 156 143 138 127 116 120 120
193 196 212 214 202 198 199 203 224 246 249 252 269 245 246 246 237 239 213 198 194 203 191 185 182 178 178 171 164 148 152 148 140
191 208 203 217 206 206 211 218 226 240 247 254 255 248 230 240 226 227 250 220 206 201 201 199 196 195 194 186 186 170 169 169 158
196 206 212 218 208 209 207 206 215 232 236 254 247 252 230 231 229 221 240 232 214 207 209 209 208 205 206 202 195 191 188 183 174
200 209 209 220 208 218 219 226 219 235 230 247 252 252 235 228 222 216 220 240 227 216 219 221 219 214 217 215 206 207 200 194 190
204 209 217 210 197 199 211 222 228 229 225 233 240 239 245 233 229 213 216 219 223 229 226 226 224 220 217 220 218 214 209 205 202
208 216 219 195 204 207 211 223 207 220 229 230 235 228 240 239 233 220 214 212 214 213 232 226 224 221 222 221 219 217 214 213 210
203 221 219 190 209 219 198 219 202 211 222 231 240 229 227 236 226 227 224 215 212 208 215 229 223 217 222 228 226 223 220 219 217
201 216 210 190 206 219 216 212 224 244 179 94 279 259 224 236 237 218 223 226 218 210 213 212 213 222 220 226 231 229 225 225 224
226 231 234 208 214 217 211 199 216 231 173 197 335 304 307 262 236 214 224 232 210 218 217 203 206 211 218 224 228 232 230 220 226
221 237 229 231 210 224 220 204 208 240 180 199 201 244 229 315 299 254 248 236 208 216 208 212 210 210 215 222 221 222 233 229 224
254 232 224 224 210 217 225 218 222 197 230 174 234 219 168 215 285 278 277 226 225 207 208 214 215 214 215 213 210 208 209 237 236
317 286 250 232 212 227 223 210 206 201 233 200 156 219 162 75 252 281 282 339 254 239 217 219 220 222 217 211 207 198 212 219 240